This demonstration page uses our WeatherBlox Daily Observations layout. Learn more.

39.92423, -83.80882

Hourly Observations for September 11, 2019

Temp ( °F °C ) Dew Point ( °F °C ) Humidity (%) Winds ( mph kmh ) Pressure ( in mb ) Visibility ( mi km ) Precip ( " mm )
12:56 am 00:56 Clear 74 23.3 69 20.6 85 85 Calm 30.15 1021 10 16.09344 0 0
1:56 am 01:56 Mostly Clear 72 22.2 69 20.6 91 91 SSW 5 7 30.15 1021 10 16.09344 0 0
2:56 am 02:56 Clear 71 21.7 69 20.6 94 94 Calm 30.15 1021 10 16.09344 0 0
3:56 am 03:56 Clear 71 21.7 69 20.6 94 94 Calm 30.15 1021 10 16.09344 0 0
4:56 am 04:56 Mostly Cloudy 69 20.6 68 20 96 96 Calm 30.15 1021 10 16.09344 0 0
5:56 am 05:56 Partly Cloudy 72 22.2 70 21.1 94 94 SSW 7 11 30.18 1022 10 16.09344 0 0
6:56 am 06:56 Mostly Cloudy 72 22.2 70 21.1 94 94 SSW 5 7 30.18 1022 10 16.09344 0 0
7:56 am 07:56 Mostly Sunny 72 22.2 70 21.1 94 94 SSW 3 6 30.18 1022 10 16.09344 0 0
8:56 am 08:56 Mostly Sunny 74 23.3 70 21.1 88 88 SW 3 6 30.18 1022 10 16.09344 0 0
9:56 am 09:56 Sunny 77 25 72 22.2 85 85 SW 7 11 30.21 1023 10 16.09344 0 0
10:56 am 10:56 Sunny 80 26.7 72 22.2 76 76 WSW 8 13 30.21 1023 8 12.874752 0 0
11:56 am 11:56 Sunny 82 27.8 73 22.8 74 74 S 8 13 30.18 1022 8 12.874752 0 0
12:56 pm 12:56 Hazy 85 29.4 73 22.8 68 68 SSW 7 11 30.18 1022 6 9.656064 0 0
1:56 pm 13:56 Sunny 89 31.7 70 21.1 53 53 W 12 19 30.15 1021 10 16.09344 0 0
2:56 pm 14:56 Mostly Sunny 90 32.2 70 21.1 52 52 WSW 15 24 30.15 1021 10 16.09344 0 0
3:56 pm 15:56 Mostly Sunny 91 32.8 70 21.1 50 50 WSW 15 24 30.12 1020 10 16.09344 0 0
4:56 pm 16:56 Sunny 90 32.2 65 18.3 44 44 WSW 20 31 30.09 1019 10 16.09344 0 0
5:56 pm 17:56 Sunny 89 31.7 67 19.4 48 48 W 13 20 30.09 1019 10 16.09344 0 0
6:56 pm 18:56 Sunny 87 30.6 67 19.4 51 51 W 9 15 30.09 1019 10 16.09344 0 0
7:56 pm 19:56 Clear 81 27.2 68 20 65 65 W 6 9 30.09 1019 10 16.09344 0 0
8:56 pm 20:56 Clear 79 26.1 68 20 69 69 WSW 3 6 30.09 1019 10 16.09344 0 0
9:56 pm 21:56 Clear 77 25 69 20.6 77 77 SSW 6 9 30.09 1019 10 16.09344 0 0
10:56 pm 22:56 Clear 72 22.2 68 20 87 87 W 6 9 30.12 1020 10 16.09344 0 0
11:56 pm 23:56 Clear 74 23.3 68 20 82 82 SW 3 6 30.12 1020 10 16.09344 0 0

Powered by AerisWeather